www.pogodaiklimat.ru

Погода и климат >> Архив погоды >> Канада >> Нунавут >> Ресольют Бэй


ПОГОДА в Ресольют Бэй

  • Прогноз погоды в Ресольют Бэй
  • Монитор погоды в Ресольют Бэй

АРХИВ ПОГОДЫ в Ресольют Бэй

Время (UTC), дата Ветер
(напр.,м/с)
 
Видим.   Явления Облачность Т
(С)
Тd
(С)
f
(%)
Тe
(С)
Тes
(С)
Комфортность P
(гПа)
Po
(гПа)
Тmin
(С)
Tmax
(С)
R
(мм)
R24
(мм)
S
(см)
00 17.04 СЗ 3 24 км ледяные иглы {снег} 1/0
[Cc]
-26.7 -30.1 73 -36 -35 опасность
обморожения
1015.9 1006.4 -32.2 -25.9 0.0 24
03 17.04 З 2 24 км 1/1 1000 м
[]
-28.8 -31.8 75 -35 -35 опасность
обморожения
1015.8 1006.3
06 17.04 С 2 16 км ледяные иглы {снег} 4/3 1000 м
[Sc Ac trans]
-30.1 -33.2 74 -36 -36 опасность
обморожения
1016.0 1006.5 -32.2 -25.9 0.0
09 17.04 СЗ 2 12 км 3/3 1000 м
[]
-29.7 -33.1 72 -36 -36 опасность
обморожения
1016.0 1006.6
12 17.04 С 1 12 км слаб. снег 8/5 300 м
[Sc Ac trans]
-29.7 -33.2 71 -31 -31 опасность
обморожения
1015.3 1005.9 -31.7 -25.9 0.0
15 17.04 С 3 24 км 4/0 2000 м
[]
-29.5 -32.9 72 -38 -36 опасность
обморожения
1014.4 1005.0
18 17.04 З 1 24 км ледяные иглы {снег} 10/0 2000 м
[As trans]
-27.8 -31.2 73 -32 -30 опасность
обморожения
1013.8 1004.4 -31.7 -27.7 0.0 24
21 17.04 З 2 24 км 10/0
[]
-27.0 -30.3 73 -34 -32 опасность
обморожения
1013.4 1004.0
00 18.04 С 1 19 км слаб. снег 10/0 2000 м
[As trans Cs]
-25.9 -29.2 74 -30 -29 1013.2 1003.8 -31.7 -25.8 0.2 24
03 18.04 ЮВ 3 6000 м 10/10 100 м
[]
-26.4 -29.5 75 -35 -35 опасность
обморожения
1012.2 1002.8
06 18.04 ЮВ 2 8000 м слаб. снег 10/6 1000 м
[Sc Ac trans]
-25.8 -28.9 75 -31 -31 опасность
обморожения
1011.7 1002.3 -31.7 -25.5 0.4
09 18.04 ЮВ 2 6000 м 10/10 600 м
[]
-26.3 -29.4 75 -32 -32 опасность
обморожения
1011.4 1002.0
12 18.04 С 1 24 км ледяные иглы {снег} 3/3 300 м
[Sc Cc]
-26.7 -29.9 74 -28 -27 1011.2 1001.9 -27.8 -25.5 0.2
15 18.04 С 1 24 км ясно -26.0 -29.2 74 -27 -23 1011.0 1001.7
18 18.04 СВ 2 24 км ледяные иглы {снег} ясно -26.6 -30.3 71 -34 -29 опасность
обморожения
1011.3 1002.0 -27.8 -25.6 0.0 24
21 18.04 В 5 22 км ясно -26.4 -30.9 66 -38 -35 опасность
обморожения
1012.0 1002.6
00 19.04 СВ 8 24 км ледяные иглы {снег} ясно -27.4 -31.9 65 -42 -42 опасность
обморожения
1012.3 1002.9 -27.8 -25.6 0.0 24
03 19.04 СВ 2 24 км ясно -26.8 -30.5 71 -33 -33 опасность
обморожения
1012.1 1002.7
06 19.04 С 1 24 км ледяные иглы {снег} 3/1 300 м
[Sc Ac trans]
-28.5 -32.0 72 -30 -30 1011.9 1002.5 -30.5 -25.6 0.0 11
09 19.04 С 1 24 км 1/0
[]
-29.3 -32.2 76 -31 -31 опасность
обморожения
1011.8 1002.4
12 19.04 СВ 1 24 км ледяные иглы {снег} ясно -30.8 -34.3 71 -35 -34 опасность
обморожения
1011.6 1002.2 -31.6 -25.6 0.0
15 19.04 Ю 2 24 км 6/6 1000 м
[]
-31.9 -35.6 70 -40 -39 опасность
обморожения
1011.7 1002.3
18 19.04 ЮВ 3 24 км ледяные иглы {снег} 10/10 1500 м
[Sc As op]
-29.0 -32.5 72 -38 -38 опасность
обморожения
1011.7 1002.3 -32.2 -27.4 0.0 24
21 19.04 ЮВ 2 24 км 5/5 1500 м
[]
-27.6 -31.4 70 -35 -33 опасность
обморожения
1012.4 1003.0
00 20.04 СЗ 1 24 км ледяные иглы {снег} 1/1 1500 м
[Sc Ci fib]
-27.7 -31.3 71 -32 -30 опасность
обморожения
1013.0 1003.6 -32.2 -27.4 0.0 24
03 20.04 С 3 24 км ясно -27.0 -32.4 60 -35 -35 опасность
обморожения
1013.5 1004.1
06 20.04 В 1 24 км ледяные иглы {снег} ясно -27.8 -31.9 68 -32 -32 опасность
обморожения
1014.2 1004.8 -32.2 -26.0 0.0
09 20.04 СВ 8 12 км ясно -30.1 -33.6 71 -46 -46 опасность
обморожения
1015.1 1005.7
12 20.04 СВ 7 24 км ледяные иглы {снег} 3/0
[Ac trans Ci fib]
-26.6 -30.9 67 -40 -40 опасность
обморожения
1015.5 1006.1 -31.6 -26.0 0.0
15 20.04 С 3 19 км 4/0
[]
-24.4 -28.8 67 -32 -30 опасность
обморожения
1015.6 1006.2
18 20.04 СЗ 3 12 км слаб. снег 10/10 1000 м
[Sc]
-25.6 -29.8 68 -34 -34 опасность
обморожения
1015.5 1006.1 -31.6 -23.6 0.0 22
21 20.04 З 6 4800 м 10/10 600 м
[]
-25.7 -29.1 73 -38 -38 опасность
обморожения
1014.8 1005.4
00 21.04 З 6 4000 м слаб. снег 10/10 600 м
[Sc]
-25.2 -28.5 74 -38 -38 опасность
обморожения
1013.5 1004.1 -31.6 -23.6 0.0 22
03 21.04 СЗ 5 11 км 9/9 1000 м
[]
-25.8 -28.7 77 -37 -37 опасность
обморожения
1011.8 1002.5
06 21.04 СЗ 3 14 км ледяные иглы {снег} 3/3 300 м
[Sc]
-27.6 -30.6 75 -37 -37 опасность
обморожения
1011.4 1002.0 -31.6 -23.6 0.2 101
09 21.04 СВ 6 11 км 3/3 1000 м
[]
-31.1 -34.4 73 -45 -45 опасность
обморожения
1010.8 1001.4
12 21.04 СВ 11 4800 м ледяные иглы {снег} ясно -30.2 -33.7 71 -48 -48 опасность
обморожения
1011.3 1001.9 -31.9 -23.6 0.0
15 21.04 СВ 10 12 км ясно -27.3 -31.0 71 -43 -43 опасность
обморожения
1011.7 1002.3
18 21.04 С 10 12 км ледяные иглы {снег} 1/1 2000 м
[Ac lent]
-26.3 -30.8 66 -42 -42 опасность
обморожения
1012.9 1003.5 -31.9 -25.7 0.0 22
21 21.04 С 9 17 км 1/0 2000 м
[]
-25.3 -29.6 67 -40 -39 опасность
обморожения
1013.9 1004.5
00 22.04 СЗ 12 12 км метель {снег} 1/1 2000 м
[Ac lent]
-26.7 -30.7 69 -44 -44 опасность
обморожения
1014.1 1004.7 -31.9 -24.7 0.0 22
03 22.04 СЗ 10 8000 м 6/0 2000 м
[]
-27.3 -30.8 72 -43 -43 опасность
обморожения
1014.8 1005.4
06 22.04 С 8 11 км 3/3 1500 м
[]
-29.0 -32.8 70 -44 -44 опасность
обморожения
1014.8 1005.4 -31.9 -24.7 221
09 22.04 СЗ 8 17 км 1/1 1500 м
[]
-29.6 -33.2 71 -45 -45 опасность
обморожения
1014.8 1005.4
12 22.04 СЗ 12 12 км ледяные иглы {снег} 4/4 1500 м
[Cb calv]
-27.3 -31.1 70 -44 -44 опасность
обморожения
1014.2 1004.8 -24.7
15 22.04 СЗ 8 16 км 1/0 2000 м
[]
-25.3 -29.3 69 -39 -39 опасность
обморожения
1014.4 1005.0
18 22.04 СЗ 10 9000 м слаб. снег 9/9 300 м
[Sc Cc]
-22.9 -26.6 72 -38 -38 опасность
обморожения
1014.0 1004.6 0.0 22
21 22.04 СЗ 3 9000 м 8/8 300 м
[]
-21.8 -25.0 75 -30 -29 1014.1 1004.7
00 23.04 СЗ 10 2400 м метель {снег} 6/6 600 м
[Sc]
-20.6 -23.6 77 -34 -34 опасность
обморожения
1013.9 1004.6 -19.9 0.0 22
03 23.04 СЗ 6 16 км 3/3 600 м
[]
-24.0 -27.0 76 -36 -36 опасность
обморожения
1013.8 1004.5
06 23.04 СЗ 5 16 км 3/3 600 м
[Sc diur, vesp]
-26.0 -29.1 75 -37 -37 опасность
обморожения
1014.4 1005.1 223
09 23.04 СЗ 7 12 км 9/9 600 м
[]
-25.3 -28.3 76 -38 -38 опасность
обморожения
1014.5 1005.2
12 23.04 СЗ 8 16 км 5/5 600 м
[Sc diur, vesp]
-25.8 -28.9 75 -40 -40 опасность
обморожения
1014.7 1005.4
15 23.04 СЗ 8 8000 м 8/8 300 м
[]
-23.5 -26.9 74 -37 -37 опасность
обморожения
1015.1 1005.8
18 23.04 СЗ 7 9000 м ледяные иглы {снег} 5/5 600 м
[Sc]
-22.9 -26.8 70 -35 -34 опасность
обморожения
1015.1 1005.8 -22.9 0.0 22
21 23.04 СЗ 9 11 км 5/5 600 м
[]
-21.6 -25.3 72 -35 -35 опасность
обморожения
1015.5 1006.2

 

Местоположение метеостанции Ресольют Бэй (Нунавут, Канада): широта 74.72 долгота -94.98 высота над уровнем моря 67 м.

В архиве по умолчанию представлена погода в Ресольют Бэй за последнюю неделю. Архивные данные за месяц целиком и за предыдущие месяцы, начиная с января 2011 года, Вы можете получить, выбрав интересующий диапазон дат из раскрывающегося списка и нажав кнопку "Ввод!".


*Определитесь, кто Вы:
робот инопланетянин человек

Внимание! Время в таблицах - всемирное. Для получения местного времени необходимо прибавить поправку, которая равна -6 ч.

Смотрите также архив погоды в соседних городах и на ближайших метеорологических станциях:

Погода в Аэропорту Ресольют Бэй (Нунавут, Канада) (1 км)
Погода на Острове Стефанссон (Нунавут, Канада) (326 км)
Погода в Арктик Бей (Нунавут, Канада) (362 км)
Погода в Исачсене (Нунавут, Канада) (500 км)
Погода в Понд-Инлете (Нунавут, Канада) (574 км)
Погода в Понд-Инлете (Нунавут, Канада) (575 км)
Погода в Талойоаке (Нунавут, Канада) (577 км)
Погода в Сарнии (Онтарио, Канада) (599 км)
Погода в Юрике (Нунавут, Канада) (623 км)
Погода в Юрике (Нунавут, Канада) (624 км)

Пояснения к столбцам:

Ветер - указаны скорость ветра в м/с - средняя за 10 мин, порывы в срок и между сроками (в фигурных скобках) и направление, откуда дует ветер: С - северный, СВ - северо-восточный, В - восточный, ЮВ - юго-восточный, Ю - южный, ЮЗ - юго-западный, З - западный, СЗ - северо-западный.
Видимость - горизонтальная дальность видимости в метрах или километрах. При видимости от 1 до 10 км при отсутствии осадков обычно наблюдается дымка, при ухудшении видимости до 1 км и менее - туман. В сухую погоду видимость может ухудшаться дымом, пылью или мглою.
Явления - указаны атмосферные явления, наблюдавшиеся в срок или в последний час перед сроком; фигурными скобками обозначены явления, наблюдавшиеся между сроками (за 1-3 часа до срока); квадратными скобками обозначены град или гололедные отложения с указанием их диаметра в мм.
Облачность - указаны через наклонную черту общая и нижняя облачность в баллах и высота нижней границы облаков в метрах; квадратными скобками обозначены формы облаков: Ci - перистые, Cs - перисто-слоистые, Cc - перисто-кучевые, Ac - высококучевые, As - высокослоистые, Sc - слоисто-кучевые, Ns - слоисто-дождевые, Cu - кучевые, Cb - кучево-дождевые. Подробнее классификацию облаков см. в Атласе облаков (PDF).
T - Температура воздуха - температура, измеренная на высоте 2 м над землей.
Td - Температура точки росы - температура, при понижении до которой содержащийся в воздухе водяной пар достигнет насыщения.
f - Относительная влажность воздуха - влажноcть воздуха, измеренная на высоте 2 м над землей.
Te - Эффективная температура - температура, которую ощущает одетый по сезону человек в тени. Характеристика душности погоды. При расчете учитывается влияние влажности воздуха и скорости ветра на теплоощущения человека.
Tes - Эффективная температура на солнце - температура, которую ощущает человек, с поправкой на солнечный нагрев. Характеристика знойности погоды. Зависит от высоты солнца над горизонтом, облачности и скорости ветра. Ночью, в пасмурную погоду, а также при ветре 12 м/с и более поправка равна нулю.
P - Атмосферное давление - приведенное к уровню моря атмосферное давление.
Po - Атмосферное давление - измеренное на уровне метеостанции атмосферное давление.
Tmin - Минимальная температура - минимум температуры воздуха на высоте 2 м над землей.
Tmax - Максимальная температура - максимум температуры воздуха на высоте 2 м над землей.
R - Количество осадков - Количество выпавших осадков за период времени, мм. При наведении курсора мыши на число - период времени, за который выпало указанное количество осадков.
R24 - Количество осадков - Количество выпавших осадков за 24 часа, мм.
S - Снежный покров - Высота снежного покрова, см. При наведении курсора мыши на число - состояние снежного покрова и степень покрытия местности в баллах.